Regional Weather Roundup
Issued by NWS

Home | Current Version | Previous Version | Graphics & Text | Print | Product List | Glossary On
Versions: 1 2 3 4 5 6 7 8 9 10 11 12 13 14 15 16 17 18 19 20 21 22 23 24 25 26 27 28 29 30 31 32 33 34 35 36 37 38 39 40 41 42 43 44 45 46 47 48 49 50
023
ASUS43 KBIS 262102
RWRND

NORTH DAKOTA REGIONAL WEATHER ROUNDUP
NATIONAL WEATHER SERVICE BISMARCK ND
400 PM CDT MON SEP 26 2016

NOTE: "FAIR" INDICATES FEW OR NO CLOUDS BELOW 12,000 FEET WITH NO
SIGNIFICANT WEATHER AND/OR OBSTRUCTIONS TO VISIBILITY.


NDZ001>003-009>011-017-262200-
NORTHWEST NORTH DAKOTA

CITY           SKY/WX    TMP DP  RH WIND       PRES   REMARKS
WILLISTON      SUNNY     69  37  30 W15G22    30.15F
MINOT          SUNNY     66  34  30 W20G26    30.09F
MINOT AFB      SUNNY     65  33  30 NW18      30.08S
$$

NDZ018>021-031>035-040>046-262200-
SOUTHWEST NORTH DAKOTA

CITY           SKY/WX    TMP DP  RH WIND       PRES   REMARKS
BISMARCK       SUNNY     68  33  27 N15G26    30.12S
DICKINSON      SUNNY     65  34  31 NW16G28   30.16F
GARRISON         N/A     67  34  29 NW21G31   30.11S
HETTINGER ARPT SUNNY     68  39  34 NW16      30.18F
$$

NDZ004>008-012>016-024-026-027-054-262200-
NORTHEAST NORTH DAKOTA

CITY           SKY/WX    TMP DP  RH WIND       PRES   REMARKS
GRAND FORKS    MOSUNNY   64  41  42 NW23G32   29.91S
GRND FRKS AFB  SUNNY     63  38  39 N18G32    29.92S
DEVILS LAKE    SUNNY     64  29  26 NW26G36   29.99S
$$

NDZ022-023-025-028>030-036>039-047>053-262200-
SOUTHEAST NORTH DAKOTA

CITY           SKY/WX    TMP DP  RH WIND       PRES   REMARKS
FARGO          SUNNY     66  33  29 NW30G36   29.93S
JAMESTOWN      SUNNY     64  33  31 NW25G37   30.02S
$$





USA.gov is the U.S. government's official web portal to all federal, state and local government web resources and services.